Flag for Mexico Weather past 2 weeks in Guadalajara, Jalisco, Mexico

Now
59 °F

Partly cloudy.


Feels Like: 60 °F
Forecast: 58 / 81 °F
Wind: 3 mph from Southwest

Location: Don Miguel / Guadalaj

Current Time: Jul 30, 2014 at 6:13:57 AM

Latest Report: Jul 30, 2014 at 5:54 AM


Visibility: 8 mi

Pressure: 30.24 "Hg

Humidity: 88%

Dew point: 55 °F

Location of GuadalajaraLocation

Historic Weather in Guadalajara — Graph

°F

Guadalajara temperature yesterday

Maximum temperature yesterday: 81 °F (at 3:52 PM)
Minimum temperature yesterday: 54 °F (at 7:51 AM)
Average temperature yesterday: 67 °F

Past Weeks' High & Low Weather Summary

 TemperatureHumidityPressure
High86 °F (Jul 21, 4:49 PM)94% (Jul 15, 7:53 AM)30.32 "Hg (Jul 15, 7:53 AM)
Low54 °F (Jul 29, 7:51 AM)27% (Jul 23, 4:55 PM)29.78 "Hg (Jul 22, 6:48 PM)
Average69 °F69%30.10 "Hg
* Reported Jul 15 5:49 AM — Jul 30 5:02 AM, Guadalajara, Weather by CustomWeather, © 2014

Note: Actual official high and low records may vary slightly from our data, if they occured in-between our weather recording intervals... More about our weather records

Advertising

Guadalajara weather history for previous 24 hours

 ConditionsComfort  
Time TempWeatherWind HumidityBarometerVisibility
5:02 AM
Jul 30
59 °FPartly cloudy.3 mph88%30.23 "Hg8 mi
3:54 AM59 °FPartly cloudy.2 mph94%29.93 "Hg8 mi
2:53 AM61 °FMostly cloudy.2 mph88%30.24 "Hg8 mi
12:53 AM63 °FPartly cloudy.5 mph83%29.96 "Hg8 mi
12:05 AM63 °FPartly cloudy.2 mph77%30.24 "Hg8 mi
10:50 PM
Jul 29
63 °FPartly cloudy.6 mph77%30.22 "Hg8 mi
9:55 PM64 °FPartly cloudy.7 mph78%29.92 "Hg8 mi
8:53 PM66 °FCloudy.9 mph78%30.19 "Hg8 mi
7:53 PM68 °FRain. Mostly cloudy.22 mph73%30.20 "Hg7 mi
6:50 PM79 °FMostly cloudy.10 mph42%29.85 "Hg10 mi
5:55 PM81 °FBroken clouds.9 mph34%30.16 "Hg10 mi
4:48 PM81 °FScattered clouds.N/A34%30.18 "Hg10 mi
3:52 PM81 °FScattered clouds.8 mph32%29.90 "Hg10 mi
2:51 PM79 °FScattered clouds.13 mph45%30.23 "Hg10 mi
1:50 PM77 °FScattered clouds.10 mph47%30.25 "Hg10 mi
12:48 PM73 °FPassing clouds.No wind53%29.97 "Hg8 mi
11:51 AM73 °FPassing clouds.No wind53%30.28 "Hg8 mi
10:49 AM70 °FPassing clouds.No wind60%30.29 "Hg8 mi
9:56 AM66 °FPassing clouds.No wind68%30.03 "Hg8 mi
8:50 AM61 °FPassing clouds.No wind83%30.28 "Hg8 mi
7:51 AM54 °FPassing clouds.No wind94%30.26 "Hg8 mi
6:56 AM55 °FPassing clouds.3 mph94%29.99 "Hg8 mi
Weather by CustomWeather, © 2014

See weather overviewHow to use our weather pages